Location: Lecco
(45.8566°N, 9.3977°E)
Time: 06:03:46
(UTC+02:00)

S-56A Canister/Altair - Pass Details

Date: 23 July 2019
Orbit: 633 x 2499 km, 38.9° (Epoch: 19 August)

Event Time Altitude Azimuth Distance (km) Brightness Sun altitude
Rises 14:59:05 0° 282° (WNW) 6,161 12.4 58.3°
Reaches altitude 10° 15:05:04 10° 266° (W) 5,156 12.3 57.5°
Maximum altitude 15:13:23 18° 232° (SW) 4,366 12.3 56.5°
Drops below altitude 10° 15:21:04 10° 196° (SSW) 4,655 12.1 55.4°
Sets 15:26:06 0° 179° (S) 5,349 12.1 54.8°
